McComb, MS

1:43 PM CDT on June 23, 2017 (GMT -0500)
McComb-Pike County-Lewis

Weather History for KMCB - March, 2013

Change the Weather History Date:

Monday, March 18, 2013

  Actual Average Record
Temperature  
Mean Temperature 72 °F -  
Max Temperature 82 °F 72 °F 88 °F (1982)
Min Temperature 62 °F 47 °F 28 °F (1960)
Cooling Degree Days 7    
Growing Degree Days 22 (Base 50)    
Moisture  
Dew Point 62 °F    
Average Humidity 80    
Maximum Humidity 97    
Minimum Humidity 49    
Precipitation  
Precipitation 0.01 in - - ()
Sea Level Pressure  
Sea Level Pressure 29.84 in    
Wind  
Wind Speed 9 mph (SW)    
Max Wind Speed 16 mph    
Max Gust Speed 22 mph    
Visibility 9 miles    
Events Rain , Thunderstorm    
Averages and records for this station are not official NWS values.
T = Trace of Precipitation, MM = Missing Value Source: NWS Daily Summary

Daily Weather History Graph

Daily Weather History Graph

Search for Another Location

Airport or City:

Trip Planner

Search our weather history database for the weather conditions in past years. The results will help you decide how hot, cold, wet, or windy it might be!

Date:

Astronomy

Mar. 18, 2013 Rise Set
Actual Time 7:07 AM CDT 7:12 PM CDT
Civil Twilight 6:43 AM CDT 7:36 PM CDT
Nautical Twilight 6:15 AM CDT 8:04 PM CDT
Astronomical Twilight 5:47 AM CDT 8:32 PM CDT
Moon 11:29 AM CDT (3/18) 12:50 AM CDT (3/18)
Length of Visible Light 12h 52m
Length of Day
12h 04m
Waxing Crescent, 41% of the Moon is Illuminated
Mar 18
Waxing Crescent
Mar 19
First Quarter
Mar 27
Full
Apr 2
Last Quarter
Apr 10
New

Hourly Weather History & Observations

Time (CDT) Temp. Heat Index Dew Point Humidity Pressure Visibility Wind Dir Wind Speed Gust Speed Precip Events Conditions
12:01 AM 66.2 °F - 62.6 °F 88% 29.84 in 9.0 mi SSE 11.5 mph - N/A   Overcast
12:53 AM 66.9 °F - 64.0 °F 90% 29.83 in 9.0 mi South 11.5 mph - N/A   Overcast
1:11 AM 66.2 °F - 64.4 °F 94% 29.83 in 9.0 mi South 10.4 mph - N/A   Overcast
1:53 AM 66.0 °F - 63.0 °F 90% 29.81 in 10.0 mi South 11.5 mph - N/A   Overcast
2:53 AM 66.0 °F - 63.0 °F 90% 29.82 in 10.0 mi South 8.1 mph - N/A   Overcast
3:53 AM 64.9 °F - 64.0 °F 97% 29.81 in 8.0 mi SSE 6.9 mph - 0.00 in   Overcast
4:53 AM 64.9 °F - 64.0 °F 97% 29.80 in 6.0 mi South 6.9 mph - N/A   Overcast
6:53 AM 66.9 °F - 64.9 °F 93% 29.83 in 6.0 mi SSW 5.8 mph - N/A   Overcast
7:53 AM 66.9 °F - 64.9 °F 93% 29.85 in 5.0 mi South 8.1 mph - N/A   Overcast
8:53 AM 69.1 °F - 66.0 °F 90% 29.86 in 6.0 mi SSW 5.8 mph - N/A   Overcast
9:27 AM 69.8 °F - 66.2 °F 88% 29.87 in 7.0 mi SSW 5.8 mph - N/A   Overcast
9:53 AM 70.0 °F - 66.0 °F 87% 29.86 in 7.0 mi SW 6.9 mph - N/A   Overcast
10:33 AM 71.6 °F - 66.2 °F 83% 29.87 in 8.0 mi SSW 11.5 mph 20.7 mph N/A   Overcast
10:53 AM 73.0 °F - 64.9 °F 76% 29.85 in 8.0 mi South 11.5 mph 21.9 mph N/A   Overcast
11:53 AM 73.9 °F - 64.9 °F 73% 29.84 in 9.0 mi SSW 10.4 mph - N/A   Mostly Cloudy
12:07 PM 75.2 °F - 64.4 °F 69% 29.85 in 9.0 mi SW 8.1 mph - N/A   Mostly Cloudy
12:53 PM 79.0 °F - 63.0 °F 58% 29.81 in 10.0 mi SSW 10.4 mph - N/A   Mostly Cloudy
1:53 PM 80.1 °F 81.1 °F 61.0 °F 52% 29.79 in 10.0 mi Variable 5.8 mph 19.6 mph N/A   Mostly Cloudy
2:53 PM 82.0 °F 82.7 °F 61.0 °F 49% 29.75 in 10.0 mi South 16.1 mph 21.9 mph N/A   Clear
3:53 PM 82.0 °F 82.7 °F 61.0 °F 49% 29.73 in 10.0 mi SSW 6.9 mph 20.7 mph N/A   Clear
4:53 PM 82.0 °F 82.7 °F 61.0 °F 49% 29.74 in 10.0 mi SW 12.7 mph 19.6 mph N/A   Clear
5:53 PM 81.0 °F 81.7 °F 61.0 °F 50% 29.74 in 10.0 mi SW 8.1 mph - N/A   Partly Cloudy
6:53 PM 78.1 °F - 61.0 °F 56% 29.75 in 10.0 mi Calm Calm - N/A   Clear
7:53 PM 71.1 °F - 63.0 °F 75% 29.78 in 10.0 mi Calm Calm - N/A   Clear
8:23 PM 71.6 °F - 62.6 °F 73% 29.81 in 10.0 mi SW 4.6 mph - N/A Thunderstorm Scattered Clouds
8:48 PM 64.4 °F - 59.0 °F 83% 29.85 in 10.0 mi North 12.7 mph 21.9 mph 0.00 in Rain , Thunderstorm Light Thunderstorms and Rain
8:53 PM 64.0 °F - 57.9 °F 80% 29.85 in 10.0 mi North 9.2 mph 18.4 mph 0.00 in Thunderstorm Thunderstorm
9:37 PM 62.6 °F - 60.8 °F 94% 29.86 in 9.0 mi NW 3.5 mph - 0.00 in   Clear
9:53 PM 63.0 °F - 60.1 °F 90% 29.90 in 8.0 mi NW 8.1 mph - 0.00 in   Scattered Clouds
10:53 PM 62.1 °F - 61.0 °F 96% 29.91 in 6.0 mi NNW 6.9 mph - 0.01 in   Mostly Cloudy
11:22 PM 62.6 °F - 60.8 °F 94% 29.94 in 9.0 mi North 6.9 mph - N/A   Scattered Clouds
11:36 PM 62.6 °F - 59.0 °F 88% 29.94 in 10.0 mi North 10.4 mph - N/A   Mostly Cloudy
11:44 PM 62.6 °F - 59.0 °F 88% 29.95 in 10.0 mi North 8.1 mph - N/A   Mostly Cloudy
11:53 PM 62.1 °F - 59.0 °F 90% 29.94 in 10.0 mi North 8.1 mph 18.4 mph N/A   Overcast